contact: severine.martini@mio.osupytheas.fr, dominique.lefevre@mio.osupytheas.fr
Project:EMSO Ligure-ouest http://www.emso-fr.org/EMSO-France
Sensor Microcat Sea-Bird SBE37 SMP,  Serial 57510 
DOI : "https://doi.org/10.17882/97948" 
Title:EMSO Ligure Ouest : Data Bathybot capteur Microcat - deploiement 2023-04-28
Datetime,Profondeur,Latitude,Longitude,Temperature,Conductivite,Pression,Salinite
time,m,degree_north,degree_east,degree_C,S/m,db,PSU 
2023-09-21T00:00:49,2420,42.8014,5.9826,13.2970,4.59874,2453.695,38.4846
2023-09-21T00:03:49,2420,42.8014,5.9826,13.2969,4.59874,2453.680,38.4846
2023-09-21T00:06:49,2420,42.8014,5.9826,13.2973,4.59881,2453.695,38.4850
2023-09-21T00:09:49,2420,42.8014,5.9826,13.2969,4.59875,2453.695,38.4847
2023-09-21T00:12:49,2420,42.8014,5.9826,13.2965,4.59874,2453.702,38.4850
2023-09-21T00:15:49,2420,42.8014,5.9826,13.2966,4.59877,2453.672,38.4852
2023-09-21T00:18:49,2420,42.8014,5.9826,13.2968,4.59874,2453.672,38.4847
2023-09-21T00:21:49,2420,42.8014,5.9826,13.2970,4.59879,2453.649,38.4851
2023-09-21T00:24:49,2420,42.8014,5.9826,13.2973,4.59875,2453.695,38.4843
2023-09-21T00:27:49,2420,42.8014,5.9826,13.2968,4.59874,2453.657,38.4848
2023-09-21T00:30:49,2420,42.8014,5.9826,13.2968,4.59879,2453.672,38.4853
2023-09-21T00:33:49,2420,42.8014,5.9826,13.2970,4.59879,2453.672,38.4850
2023-09-21T00:36:49,2420,42.8014,5.9826,13.2971,4.59877,2453.695,38.4848
2023-09-21T00:39:49,2420,42.8014,5.9826,13.2972,4.59884,2453.672,38.4853
2023-09-21T00:42:49,2420,42.8014,5.9826,13.2970,4.59883,2453.672,38.4854
2023-09-21T00:45:49,2420,42.8014,5.9826,13.2970,4.59886,2453.664,38.4857
2023-09-21T00:48:49,2420,42.8014,5.9826,13.2967,4.59894,2453.649,38.4868
2023-09-21T00:51:49,2420,42.8014,5.9826,13.2970,4.59887,2453.672,38.4858
2023-09-21T00:54:49,2420,42.8014,5.9826,13.2966,4.59886,2453.695,38.4860
2023-09-21T00:57:49,2420,42.8014,5.9826,13.2973,4.59887,2453.695,38.4855
2023-09-21T01:00:49,2420,42.8014,5.9826,13.2972,4.59886,2453.627,38.4855
2023-09-21T01:03:49,2420,42.8014,5.9826,13.2971,4.59880,2453.672,38.4850
2023-09-21T01:06:49,2420,42.8014,5.9826,13.2969,4.59881,2453.672,38.4853
2023-09-21T01:09:49,2420,42.8014,5.9826,13.2967,4.59894,2453.649,38.4867
2023-09-21T01:12:49,2420,42.8014,5.9826,13.2968,4.59887,2453.672,38.4859
2023-09-21T01:15:49,2420,42.8014,5.9826,13.2968,4.59884,2453.649,38.4858
2023-09-21T01:18:49,2420,42.8014,5.9826,13.2973,4.59902,2453.672,38.4868
2023-09-21T01:21:49,2420,42.8014,5.9826,13.2972,4.59892,2453.649,38.4860
2023-09-21T01:24:49,2420,42.8014,5.9826,13.2983,4.59915,2453.649,38.4871
2023-09-21T01:27:49,2420,42.8014,5.9826,13.2973,4.59890,2453.627,38.4857
2023-09-21T01:30:49,2420,42.8014,5.9826,13.2967,4.59897,2453.672,38.4871
2023-09-21T01:33:49,2420,42.8014,5.9826,13.2969,4.59896,2453.649,38.4867
2023-09-21T01:36:49,2420,42.8014,5.9826,13.2973,4.59935,2453.649,38.4901
2023-09-21T01:39:49,2420,42.8014,5.9826,13.2968,4.59892,2453.672,38.4864
2023-09-21T01:42:49,2420,42.8014,5.9826,13.2975,4.59883,2453.641,38.4850
2023-09-21T01:45:49,2420,42.8014,5.9826,13.2970,4.59890,2453.635,38.4861
2023-09-21T01:48:49,2420,42.8014,5.9826,13.2973,4.59882,2453.649,38.4850
2023-09-21T01:51:49,2420,42.8014,5.9826,13.2970,4.59908,2453.627,38.4878
2023-09-21T01:54:49,2420,42.8014,5.9826,13.2968,4.59887,2453.649,38.4860
2023-09-21T01:57:49,2420,42.8014,5.9826,13.2972,4.59889,2453.604,38.4858
2023-09-21T02:00:50,2420,42.8014,5.9826,13.2969,4.59891,2453.627,38.4862
2023-09-21T02:03:49,2420,42.8014,5.9826,13.2971,4.59899,2453.627,38.4868
2023-09-21T02:06:49,2420,42.8014,5.9826,13.2966,4.59902,2453.604,38.4876
2023-09-21T02:09:49,2420,42.8014,5.9826,13.2967,4.59901,2453.627,38.4874
2023-09-21T02:12:49,2420,42.8014,5.9826,13.2970,4.59904,2453.627,38.4874
2023-09-21T02:15:49,2420,42.8014,5.9826,13.2970,4.59902,2453.604,38.4872
2023-09-21T02:18:49,2420,42.8014,5.9826,13.2968,4.59904,2453.604,38.4876
2023-09-21T02:21:49,2420,42.8014,5.9826,13.2968,4.59897,2453.649,38.4869
2023-09-21T02:24:49,2420,42.8014,5.9826,13.2969,4.59900,2453.604,38.4871
2023-09-21T02:27:49,2420,42.8014,5.9826,13.2973,4.59928,2453.627,38.4894
2023-09-21T02:30:49,2420,42.8014,5.9826,13.2971,4.59918,2453.604,38.4886
2023-09-21T02:33:49,2420,42.8014,5.9826,13.2973,4.59925,2453.604,38.4891
2023-09-21T02:36:49,2420,42.8014,5.9826,13.2970,4.59929,2453.604,38.4898
2023-09-21T02:39:49,2420,42.8014,5.9826,13.2971,4.59910,2453.612,38.4878
2023-09-21T02:42:49,2420,42.8014,5.9826,13.2975,4.59908,2453.627,38.4872
2023-09-21T02:45:49,2420,42.8014,5.9826,13.2970,4.59918,2453.604,38.4887
2023-09-21T02:48:49,2420,42.8014,5.9826,13.2970,4.59927,2453.627,38.4895
2023-09-21T02:51:49,2420,42.8014,5.9826,13.2966,4.60328,2453.604,38.5278
2023-09-21T02:54:49,2420,42.8014,5.9826,13.3004,4.60069,2453.604,38.4996
2023-09-21T02:57:49,2420,42.8014,5.9826,13.2970,4.59941,2453.604,38.4909
2023-09-21T03:00:49,2420,42.8014,5.9826,13.2971,4.60013,2453.627,38.4976
2023-09-21T03:03:49,2420,42.8014,5.9826,13.3026,4.60029,2453.604,38.4936
2023-09-21T03:06:49,2420,42.8014,5.9826,13.3015,4.60076,2453.604,38.4993
2023-09-21T03:09:49,2420,42.8014,5.9826,13.2999,4.60255,2453.604,38.5177
2023-09-21T03:12:49,2420,42.8014,5.9826,13.2985,4.59965,2453.604,38.4917
2023-09-21T03:15:49,2420,42.8014,5.9826,13.2979,4.59932,2453.619,38.4892
2023-09-21T03:18:49,2420,42.8014,5.9826,13.2973,4.59927,2453.604,38.4893
2023-09-21T03:21:49,2420,42.8014,5.9826,13.2990,4.59926,2453.619,38.4875
2023-09-21T03:24:49,2420,42.8014,5.9826,13.2971,4.59926,2453.641,38.4893
2023-09-21T03:27:49,2420,42.8014,5.9826,13.2973,4.59985,2453.604,38.4947
2023-09-21T03:30:49,2420,42.8014,5.9826,13.2970,4.59920,2453.582,38.4890
2023-09-21T03:33:49,2420,42.8014,5.9826,13.2989,4.59937,2453.582,38.4886
2023-09-21T03:36:49,2420,42.8014,5.9826,13.2984,4.59926,2453.582,38.4881
2023-09-21T03:39:49,2420,42.8014,5.9826,13.2974,4.59929,2453.582,38.4894
2023-09-21T03:42:49,2420,42.8014,5.9826,13.2969,4.59920,2453.604,38.4890
2023-09-21T03:45:49,2420,42.8014,5.9826,13.2972,4.59923,2453.604,38.4890
2023-09-21T03:48:49,2420,42.8014,5.9826,13.2970,4.59917,2453.582,38.4886
2023-09-21T03:51:49,2420,42.8014,5.9826,13.2970,4.59916,2453.582,38.4886
2023-09-21T03:54:49,2420,42.8014,5.9826,13.2978,4.59940,2453.604,38.4901
2023-09-21T03:57:49,2420,42.8014,5.9826,13.2968,4.59937,2453.627,38.4907
2023-09-21T04:00:49,2420,42.8014,5.9826,13.2968,4.59918,2453.590,38.4889
2023-09-21T04:03:49,2420,42.8014,5.9826,13.2973,4.59912,2453.604,38.4878
2023-09-21T04:06:49,2420,42.8014,5.9826,13.2969,4.59903,2453.604,38.4874
2023-09-21T04:09:49,2420,42.8014,5.9826,13.2973,4.59907,2453.604,38.4874
2023-09-21T04:12:49,2420,42.8014,5.9826,13.2965,4.59926,2453.604,38.4900
2023-09-21T04:15:49,2420,42.8014,5.9826,13.2968,4.59910,2453.559,38.4882
2023-09-21T04:18:49,2420,42.8014,5.9826,13.2972,4.59928,2453.604,38.4895
2023-09-21T04:21:49,2420,42.8014,5.9826,13.2969,4.59937,2453.604,38.4906
2023-09-21T04:24:49,2420,42.8014,5.9826,13.2968,4.59957,2453.604,38.4926
2023-09-21T04:27:49,2420,42.8014,5.9826,13.3023,4.59941,2453.604,38.4856
2023-09-21T04:30:49,2420,42.8014,5.9826,13.2978,4.60016,2453.604,38.4973
2023-09-21T04:33:49,2420,42.8014,5.9826,13.3023,4.59977,2453.604,38.4890
2023-09-21T04:36:49,2420,42.8014,5.9826,13.2985,4.59968,2453.567,38.4920
2023-09-21T04:39:49,2420,42.8014,5.9826,13.2990,4.60170,2453.582,38.5106
2023-09-21T04:42:49,2420,42.8014,5.9826,13.2985,4.60130,2453.604,38.5073
2023-09-21T04:45:49,2420,42.8014,5.9826,13.2982,4.60251,2453.604,38.5191
2023-09-21T04:48:49,2420,42.8014,5.9826,13.2984,4.60382,2453.559,38.5311
2023-09-21T04:51:49,2420,42.8014,5.9826,13.3016,4.60168,2453.582,38.5077
2023-09-21T04:54:49,2420,42.8014,5.9826,13.3002,4.60185,2453.582,38.5107
2023-09-21T04:57:49,2420,42.8014,5.9826,13.2987,4.60198,2453.627,38.5134
2023-09-21T05:00:49,2420,42.8014,5.9826,13.3008,4.60050,2453.582,38.4975
2023-09-21T05:03:49,2420,42.8014,5.9826,13.3029,4.60005,2453.604,38.4910
2023-09-21T05:06:49,2420,42.8014,5.9826,13.2997,4.60135,2453.582,38.5066
2023-09-21T05:09:49,2420,42.8014,5.9826,13.3005,4.60030,2453.582,38.4958
2023-09-21T05:12:49,2420,42.8014,5.9826,13.2983,4.60110,2453.559,38.5055
2023-09-21T05:15:49,2420,42.8014,5.9826,13.2982,4.60036,2453.574,38.4987
2023-09-21T05:18:49,2420,42.8014,5.9826,13.2986,4.60138,2453.582,38.5079
2023-09-21T05:21:49,2420,42.8014,5.9826,13.3084,4.59978,2453.596,38.4831
2023-09-21T05:24:50,2420,42.8014,5.9826,13.3020,4.60201,2453.582,38.5105
2023-09-21T05:27:49,2420,42.8014,5.9826,13.3027,4.59948,2453.641,38.4859
2023-09-21T05:30:49,2420,42.8014,5.9826,13.3008,4.60061,2453.604,38.4984
2023-09-21T05:33:50,2420,42.8014,5.9826,13.3109,4.59959,2453.574,38.4787
2023-09-21T05:36:49,2420,42.8014,5.9826,13.3122,4.59996,2453.604,38.4810
2023-09-21T05:39:49,2420,42.8014,5.9826,13.3208,4.60034,2453.604,38.4760
2023-09-21T05:42:49,2420,42.8014,5.9826,13.3043,4.59990,2453.596,38.4883
2023-09-21T05:45:49,2420,42.8014,5.9826,13.3048,4.59995,2453.559,38.4883
2023-09-21T05:48:49,2420,42.8014,5.9826,13.3020,4.59954,2453.582,38.4872
2023-09-21T05:51:49,2420,42.8014,5.9826,13.3023,4.59995,2453.604,38.4908
2023-09-21T05:54:49,2420,42.8014,5.9826,13.3002,4.59969,2453.604,38.4904
2023-09-21T05:57:49,2420,42.8014,5.9826,13.3018,4.59974,2453.559,38.4893
2023-09-21T06:00:49,2420,42.8014,5.9826,13.2997,4.59960,2453.574,38.4901
2023-09-21T06:03:49,2420,42.8014,5.9826,13.3006,4.59968,2453.559,38.4899
2023-09-21T06:06:49,2420,42.8014,5.9826,13.2979,4.60006,2453.604,38.4962
2023-09-21T06:09:49,2420,42.8014,5.9826,13.2989,4.59985,2453.604,38.4932
2023-09-21T06:12:49,2420,42.8014,5.9826,13.2998,4.59955,2453.559,38.4894
2023-09-21T06:15:49,2420,42.8014,5.9826,13.2996,4.59945,2453.604,38.4887
2023-09-21T06:18:49,2420,42.8014,5.9826,13.2978,4.59923,2453.641,38.4885
2023-09-21T06:21:49,2420,42.8014,5.9826,13.2982,4.60015,2453.604,38.4967
2023-09-21T06:24:49,2420,42.8014,5.9826,13.3017,4.59974,2453.627,38.4894
2023-09-21T06:27:49,2420,42.8014,5.9826,13.3038,4.59979,2453.604,38.4877
2023-09-21T06:30:49,2420,42.8014,5.9826,13.3029,4.59956,2453.604,38.4865
2023-09-21T06:33:49,2420,42.8014,5.9826,13.2999,4.59930,2453.582,38.4870
2023-09-21T06:36:49,2420,42.8014,5.9826,13.2984,4.59946,2453.590,38.4900
2023-09-21T06:39:49,2420,42.8014,5.9826,13.3004,4.59959,2453.544,38.4892
2023-09-21T06:42:49,2420,42.8014,5.9826,13.2998,4.59923,2453.596,38.4865
2023-09-21T06:45:49,2420,42.8014,5.9826,13.2987,4.59910,2453.559,38.4863
2023-09-21T06:48:49,2420,42.8014,5.9826,13.2982,4.59923,2453.582,38.4881
2023-09-21T06:51:49,2420,42.8014,5.9826,13.3015,4.59941,2453.604,38.4865
2023-09-21T06:54:49,2420,42.8014,5.9826,13.3014,4.59951,2453.596,38.4874
2023-09-21T06:57:49,2420,42.8014,5.9826,13.2986,4.59943,2453.627,38.4895
2023-09-21T07:00:49,2420,42.8014,5.9826,13.2988,4.59926,2453.582,38.4876
2023-09-21T07:03:49,2420,42.8014,5.9826,13.2982,4.59931,2453.627,38.4888
2023-09-21T07:06:49,2420,42.8014,5.9826,13.2975,4.59920,2453.627,38.4883
2023-09-21T07:09:49,2420,42.8014,5.9826,13.2993,4.59927,2453.619,38.4873
2023-09-21T07:12:49,2420,42.8014,5.9826,13.2991,4.59908,2453.627,38.4857
2023-09-21T07:15:49,2420,42.8014,5.9826,13.3002,4.59928,2453.649,38.4864
2023-09-21T07:18:49,2420,42.8014,5.9826,13.2972,4.59911,2453.627,38.4879
2023-09-21T07:21:49,2420,42.8014,5.9826,13.2980,4.59903,2453.627,38.4863
2023-09-21T07:24:49,2420,42.8014,5.9826,13.2990,4.59908,2453.649,38.4858
2023-09-21T07:27:49,2420,42.8014,5.9826,13.2985,4.59928,2453.641,38.4882
2023-09-21T07:30:49,2420,42.8014,5.9826,13.2977,4.59910,2453.612,38.4873
2023-09-21T07:33:49,2420,42.8014,5.9826,13.2970,4.59897,2453.641,38.4868
2023-09-21T07:36:49,2420,42.8014,5.9826,13.2976,4.59900,2453.635,38.4865
2023-09-21T07:39:49,2420,42.8014,5.9826,13.2974,4.59894,2453.672,38.4860
2023-09-21T07:42:49,2420,42.8014,5.9826,13.2982,4.59906,2453.649,38.4864
2023-09-21T07:45:49,2420,42.8014,5.9826,13.2975,4.59899,2453.672,38.4865
2023-09-21T07:48:49,2420,42.8014,5.9826,13.2971,4.59904,2453.649,38.4873
2023-09-21T07:51:49,2420,42.8014,5.9826,13.2973,4.59902,2453.627,38.4869
2023-09-21T07:54:49,2420,42.8014,5.9826,13.2971,4.59898,2453.649,38.4867
2023-09-21T07:57:49,2420,42.8014,5.9826,13.2974,4.59895,2453.672,38.4862
2023-09-21T08:00:49,2420,42.8014,5.9826,13.2973,4.59900,2453.649,38.4867
2023-09-21T08:03:49,2420,42.8014,5.9826,13.2978,4.59904,2453.657,38.4866
2023-09-21T08:06:49,2420,42.8014,5.9826,13.2972,4.59900,2453.672,38.4869
2023-09-21T08:09:49,2420,42.8014,5.9826,13.2970,4.59889,2453.649,38.4860
2023-09-21T08:12:49,2420,42.8014,5.9826,13.2972,4.59895,2453.672,38.4864
2023-09-21T08:15:49,2420,42.8014,5.9826,13.2974,4.59895,2453.672,38.4862
2023-09-21T08:18:49,2420,42.8014,5.9826,13.2972,4.59894,2453.672,38.4863
2023-09-21T08:21:49,2420,42.8014,5.9826,13.2974,4.59892,2453.672,38.4858
2023-09-21T08:24:49,2420,42.8014,5.9826,13.2971,4.59894,2453.657,38.4863
2023-09-21T08:27:49,2420,42.8014,5.9826,13.2971,4.59896,2453.717,38.4865
2023-09-21T08:30:49,2420,42.8014,5.9826,13.2970,4.59890,2453.717,38.4860
2023-09-21T08:33:49,2420,42.8014,5.9826,13.2973,4.59896,2453.695,38.4863
2023-09-21T08:36:49,2420,42.8014,5.9826,13.2972,4.59894,2453.695,38.4863
2023-09-21T08:39:49,2420,42.8014,5.9826,13.2984,4.59896,2453.695,38.4852
2023-09-21T08:42:49,2420,42.8014,5.9826,13.2970,4.59889,2453.717,38.4860
2023-09-21T08:45:49,2420,42.8014,5.9826,13.2970,4.59897,2453.672,38.4867
2023-09-21T08:48:49,2420,42.8014,5.9826,13.2973,4.59903,2453.717,38.4869
2023-09-21T08:51:49,2420,42.8014,5.9826,13.2969,4.59899,2453.702,38.4870
2023-09-21T08:54:49,2420,42.8014,5.9826,13.2972,4.59894,2453.702,38.4863
2023-09-21T08:57:49,2420,42.8014,5.9826,13.2972,4.59888,2453.709,38.4857
2023-09-21T09:00:49,2420,42.8014,5.9826,13.2973,4.59880,2453.717,38.4847
2023-09-21T09:03:49,2420,42.8014,5.9826,13.2971,4.59880,2453.717,38.4850
2023-09-21T09:06:49,2420,42.8014,5.9826,13.2970,4.59889,2453.695,38.4860
2023-09-21T09:09:49,2420,42.8014,5.9826,13.2971,4.59889,2453.695,38.4858
2023-09-21T09:12:49,2420,42.8014,5.9826,13.2968,4.59878,2453.702,38.4851
2023-09-21T09:15:49,2420,42.8014,5.9826,13.2971,4.59880,2453.740,38.4850
2023-09-21T09:18:49,2420,42.8014,5.9826,13.2969,4.59880,2453.695,38.4852
2023-09-21T09:21:49,2420,42.8014,5.9826,13.2971,4.59886,2453.762,38.4856
2023-09-21T09:24:49,2420,42.8014,5.9826,13.2968,4.59882,2453.740,38.4854
2023-09-21T09:27:49,2420,42.8014,5.9826,13.2969,4.59884,2453.717,38.4856
2023-09-21T09:30:49,2420,42.8014,5.9826,13.2967,4.59883,2453.725,38.4857
2023-09-21T09:33:49,2420,42.8014,5.9826,13.2972,4.59883,2453.695,38.4852
2023-09-21T09:36:49,2420,42.8014,5.9826,13.2970,4.59873,2453.740,38.4845
2023-09-21T09:39:49,2420,42.8014,5.9826,13.2970,4.59877,2453.717,38.4848
2023-09-21T09:42:49,2420,42.8014,5.9826,13.2968,4.59876,2453.740,38.4850
2023-09-21T09:45:49,2420,42.8014,5.9826,13.2972,4.59880,2453.740,38.4849
2023-09-21T09:48:49,2420,42.8014,5.9826,13.2970,4.59879,2453.732,38.4850
2023-09-21T09:51:49,2420,42.8014,5.9826,13.2966,4.59880,2453.717,38.4855
2023-09-21T09:54:49,2420,42.8014,5.9826,13.2966,4.59884,2453.740,38.4859
2023-09-21T09:57:49,2420,42.8014,5.9826,13.2968,4.59885,2453.740,38.4857
2023-09-21T10:00:49,2420,42.8014,5.9826,13.2969,4.59877,2453.740,38.4849
2023-09-21T10:03:49,2420,42.8014,5.9826,13.2969,4.59876,2453.740,38.4848
2023-09-21T10:06:49,2420,42.8014,5.9826,13.2969,4.59876,2453.717,38.4848
2023-09-21T10:09:49,2420,42.8014,5.9826,13.2970,4.59875,2453.740,38.4846
2023-09-21T10:12:49,2420,42.8014,5.9826,13.2969,4.59874,2453.762,38.4846
2023-09-21T10:15:49,2420,42.8014,5.9826,13.2969,4.59872,2453.740,38.4845
2023-09-21T10:18:49,2420,42.8014,5.9826,13.2968,4.59877,2453.717,38.4851
2023-09-21T10:21:49,2420,42.8014,5.9826,13.2968,4.59874,2453.740,38.4847
2023-09-21T10:24:49,2420,42.8014,5.9826,13.2966,4.59880,2453.725,38.4855
2023-09-21T10:27:49,2420,42.8014,5.9826,13.2974,4.59879,2453.695,38.4846
2023-09-21T10:30:49,2420,42.8014,5.9826,13.2966,4.59878,2453.725,38.4853
2023-09-21T10:33:49,2420,42.8014,5.9826,13.2966,4.59880,2453.740,38.4854
2023-09-21T10:36:49,2420,42.8014,5.9826,13.2970,4.59877,2453.740,38.4848
2023-09-21T10:39:49,2420,42.8014,5.9826,13.2970,4.59880,2453.717,38.4852
2023-09-21T10:42:49,2420,42.8014,5.9826,13.2967,4.59880,2453.717,38.4854
2023-09-21T10:45:49,2420,42.8014,5.9826,13.2970,4.59877,2453.740,38.4848
2023-09-21T10:48:49,2420,42.8014,5.9826,13.2969,4.59883,2453.754,38.4854
2023-09-21T10:51:49,2420,42.8014,5.9826,13.2972,4.59877,2453.740,38.4846
2023-09-21T10:54:49,2420,42.8014,5.9826,13.2973,4.59880,2453.740,38.4847
2023-09-21T10:57:49,2420,42.8014,5.9826,13.2971,4.59878,2453.740,38.4848
2023-09-21T11:00:50,2420,42.8014,5.9826,13.2968,4.59878,2453.725,38.4851
2023-09-21T11:03:49,2420,42.8014,5.9826,13.2970,4.59879,2453.740,38.4850
2023-09-21T11:06:49,2420,42.8014,5.9826,13.2973,4.59878,2453.717,38.4846
2023-09-21T11:09:49,2420,42.8014,5.9826,13.2973,4.59873,2453.717,38.4842
2023-09-21T11:12:49,2420,42.8014,5.9826,13.2963,4.59873,2453.740,38.4852
2023-09-21T11:15:49,2420,42.8014,5.9826,13.2969,4.59881,2453.717,38.4853
2023-09-21T11:18:49,2420,42.8014,5.9826,13.2967,4.59880,2453.740,38.4854
2023-09-21T11:21:49,2420,42.8014,5.9826,13.2969,4.59878,2453.702,38.4850
2023-09-21T11:24:49,2420,42.8014,5.9826,13.2968,4.59878,2453.717,38.4852
2023-09-21T11:27:49,2420,42.8014,5.9826,13.2970,4.59880,2453.762,38.4850
2023-09-21T11:30:49,2420,42.8014,5.9826,13.2970,4.59879,2453.740,38.4850
2023-09-21T11:33:49,2420,42.8014,5.9826,13.2970,4.59875,2453.680,38.4846
2023-09-21T11:36:49,2420,42.8014,5.9826,13.2973,4.59881,2453.740,38.4849
2023-09-21T11:39:49,2420,42.8014,5.9826,13.2973,4.59880,2453.754,38.4849
2023-09-21T11:42:49,2420,42.8014,5.9826,13.2965,4.59884,2453.717,38.4860
2023-09-21T11:45:49,2420,42.8014,5.9826,13.2967,4.59879,2453.740,38.4853
2023-09-21T11:48:49,2420,42.8014,5.9826,13.2970,4.59883,2453.740,38.4854
2023-09-21T11:51:49,2420,42.8014,5.9826,13.2973,4.59875,2453.740,38.4844
2023-09-21T11:54:49,2420,42.8014,5.9826,13.2967,4.59872,2453.754,38.4846
2023-09-21T11:57:49,2420,42.8014,5.9826,13.2970,4.59875,2453.754,38.4847
2023-09-21T12:00:49,2420,42.8014,5.9826,13.2968,4.59872,2453.717,38.4846
2023-09-21T12:03:49,2420,42.8014,5.9826,13.2969,4.59874,2453.725,38.4846
2023-09-21T12:06:49,2420,42.8014,5.9826,13.2970,4.59874,2453.702,38.4845
2023-09-21T12:09:49,2420,42.8014,5.9826,13.2972,4.59874,2453.740,38.4843
2023-09-21T12:12:49,2420,42.8014,5.9826,13.2970,4.59874,2453.717,38.4845
2023-09-21T12:15:49,2420,42.8014,5.9826,13.2968,4.59872,2453.725,38.4846
2023-09-21T12:18:49,2420,42.8014,5.9826,13.2966,4.59870,2453.717,38.4845
2023-09-21T12:21:49,2420,42.8014,5.9826,13.2968,4.59869,2453.717,38.4843
2023-09-21T12:24:49,2420,42.8014,5.9826,13.2968,4.59875,2453.717,38.4848
2023-09-21T12:27:49,2420,42.8014,5.9826,13.2970,4.59872,2453.740,38.4843
2023-09-21T12:30:49,2420,42.8014,5.9826,13.2967,4.59872,2453.725,38.4847
2023-09-21T12:33:49,2420,42.8014,5.9826,13.2970,4.59871,2453.740,38.4842
2023-09-21T12:36:49,2420,42.8014,5.9826,13.2970,4.59869,2453.740,38.4841
2023-09-21T12:39:49,2420,42.8014,5.9826,13.2973,4.59873,2453.695,38.4842
2023-09-21T12:42:49,2420,42.8014,5.9826,13.2966,4.59875,2453.695,38.4850
2023-09-21T12:45:49,2420,42.8014,5.9826,13.2971,4.59874,2453.717,38.4844
2023-09-21T12:48:49,2420,42.8014,5.9826,13.2970,4.59879,2453.695,38.4850
2023-09-21T12:51:49,2420,42.8014,5.9826,13.2967,4.59879,2453.717,38.4853
2023-09-21T12:54:50,2420,42.8014,5.9826,13.2970,4.59872,2453.695,38.4843
2023-09-21T12:57:49,2420,42.8014,5.9826,13.2971,4.59873,2453.695,38.4843
2023-09-21T13:00:49,2420,42.8014,5.9826,13.2968,4.59872,2453.695,38.4846
2023-09-21T13:03:50,2420,42.8014,5.9826,13.2968,4.59876,2453.695,38.4849
2023-09-21T13:06:49,2420,42.8014,5.9826,13.2973,4.59877,2453.717,38.4846
2023-09-21T13:09:49,2420,42.8014,5.9826,13.2971,4.59875,2453.695,38.4845
2023-09-21T13:12:49,2420,42.8014,5.9826,13.2971,4.59875,2453.672,38.4846
2023-09-21T13:15:49,2420,42.8014,5.9826,13.2966,4.59872,2453.672,38.4847
2023-09-21T13:18:49,2420,42.8014,5.9826,13.2969,4.59872,2453.680,38.4845
2023-09-21T13:21:49,2420,42.8014,5.9826,13.2968,4.59872,2453.635,38.4846
2023-09-21T13:24:49,2420,42.8014,5.9826,13.2968,4.59872,2453.635,38.4845
2023-09-21T13:27:49,2420,42.8014,5.9826,13.2969,4.59875,2453.695,38.4848
2023-09-21T13:30:49,2420,42.8014,5.9826,13.2968,4.59872,2453.695,38.4846
2023-09-21T13:33:49,2420,42.8014,5.9826,13.2969,4.59879,2453.717,38.4851
2023-09-21T13:36:49,2420,42.8014,5.9826,13.2970,4.59876,2453.709,38.4848
2023-09-21T13:39:49,2420,42.8014,5.9826,13.2970,4.59872,2453.672,38.4844
2023-09-21T13:42:49,2420,42.8014,5.9826,13.2967,4.59871,2453.649,38.4846
2023-09-21T13:45:49,2420,42.8014,5.9826,13.2970,4.59877,2453.672,38.4848
2023-09-21T13:48:49,2420,42.8014,5.9826,13.2968,4.59877,2453.695,38.4850
2023-09-21T13:51:49,2420,42.8014,5.9826,13.2968,4.59880,2453.672,38.4854
2023-09-21T13:54:49,2420,42.8014,5.9826,13.2968,4.59872,2453.672,38.4846
2023-09-21T13:57:49,2420,42.8014,5.9826,13.2969,4.59875,2453.672,38.4847
2023-09-21T14:00:49,2420,42.8014,5.9826,13.2966,4.59872,2453.695,38.4847
2023-09-21T14:03:49,2420,42.8014,5.9826,13.2970,4.59875,2453.672,38.4846
2023-09-21T14:06:49,2420,42.8014,5.9826,13.2969,4.59873,2453.709,38.4845
2023-09-21T14:09:49,2420,42.8014,5.9826,13.2968,4.59874,2453.672,38.4847
2023-09-21T14:12:49,2420,42.8014,5.9826,13.2970,4.59877,2453.635,38.4849
2023-09-21T14:15:49,2420,42.8014,5.9826,13.2970,4.59872,2453.672,38.4844
2023-09-21T14:18:49,2420,42.8014,5.9826,13.2969,4.59882,2453.649,38.4854
2023-09-21T14:21:49,2420,42.8014,5.9826,13.2973,4.59880,2453.672,38.4848
2023-09-21T14:24:49,2420,42.8014,5.9826,13.2970,4.59877,2453.657,38.4848
2023-09-21T14:27:49,2420,42.8014,5.9826,13.2970,4.59878,2453.649,38.4850
2023-09-21T14:30:49,2420,42.8014,5.9826,13.2973,4.59877,2453.695,38.4845
2023-09-21T14:33:49,2420,42.8014,5.9826,13.2968,4.59877,2453.672,38.4851
2023-09-21T14:36:49,2420,42.8014,5.9826,13.2970,4.59878,2453.672,38.4850
2023-09-21T14:39:49,2420,42.8014,5.9826,13.2968,4.59875,2453.635,38.4848
2023-09-21T14:42:49,2420,42.8014,5.9826,13.2972,4.59876,2453.672,38.4846
2023-09-21T14:45:49,2420,42.8014,5.9826,13.2969,4.59874,2453.649,38.4846
2023-09-21T14:48:49,2420,42.8014,5.9826,13.2969,4.59875,2453.641,38.4847
2023-09-21T14:51:49,2420,42.8014,5.9826,13.2968,4.59876,2453.627,38.4850
2023-09-21T14:54:49,2420,42.8014,5.9826,13.2970,4.59874,2453.672,38.4845
2023-09-21T14:57:49,2420,42.8014,5.9826,13.2970,4.59875,2453.635,38.4847
2023-09-21T15:00:49,2420,42.8014,5.9826,13.2972,4.59874,2453.649,38.4844
2023-09-21T15:03:49,2420,42.8014,5.9826,13.2972,4.59877,2453.649,38.4846
2023-09-21T15:06:49,2420,42.8014,5.9826,13.2975,4.59878,2453.664,38.4845
2023-09-21T15:09:49,2420,42.8014,5.9826,13.2974,4.59873,2453.649,38.4841
2023-09-21T15:12:49,2420,42.8014,5.9826,13.2971,4.59872,2453.635,38.4843
2023-09-21T15:15:49,2420,42.8014,5.9826,13.2968,4.59872,2453.672,38.4846
2023-09-21T15:18:49,2420,42.8014,5.9826,13.2970,4.59872,2453.649,38.4844
2023-09-21T15:21:49,2420,42.8014,5.9826,13.2970,4.59877,2453.649,38.4848
2023-09-21T15:24:49,2420,42.8014,5.9826,13.2972,4.59872,2453.649,38.4842
2023-09-21T15:27:49,2420,42.8014,5.9826,13.2974,4.59876,2453.680,38.4843
2023-09-21T15:30:49,2420,42.8014,5.9826,13.2970,4.59874,2453.687,38.4846
2023-09-21T15:33:49,2420,42.8014,5.9826,13.2972,4.59875,2453.635,38.4844
2023-09-21T15:36:49,2420,42.8014,5.9826,13.2970,4.59872,2453.657,38.4843
2023-09-21T15:39:49,2420,42.8014,5.9826,13.2972,4.59872,2453.627,38.4842
2023-09-21T15:42:49,2420,42.8014,5.9826,13.2967,4.59872,2453.649,38.4847
2023-09-21T15:45:49,2420,42.8014,5.9826,13.2970,4.59872,2453.649,38.4844
2023-09-21T15:48:49,2420,42.8014,5.9826,13.2967,4.59871,2453.627,38.4846
2023-09-21T15:51:49,2420,42.8014,5.9826,13.2968,4.59873,2453.649,38.4847
2023-09-21T15:54:49,2420,42.8014,5.9826,13.2971,4.59870,2453.664,38.4841
2023-09-21T15:57:49,2420,42.8014,5.9826,13.2970,4.59872,2453.649,38.4843
2023-09-21T16:00:49,2420,42.8014,5.9826,13.2970,4.59872,2453.612,38.4844
2023-09-21T16:03:49,2420,42.8014,5.9826,13.2973,4.59872,2453.627,38.4840